English version (google)  Retour à l'accueil Ecrire à l'auteur du site Runraid : Michel Jourdan


 Visitez La Boutique 



Les prochaines courses


Les derniers résultats

cliquez pour visualiser la page complète relatant la chronologie des éruptions du Piton de la Fournaise
éruptions Piton de la Fournaise


Ile de La Réunion

 Diagonale des Fous 

Ecrire au créateur du site : Michel Jourdan
Contact


2021-09-04 - La Bouillonnate 50km

Pour consulter le palmarès d'un coureur, un clic sur son nom !

Vous avez des remarques, corrections, ... sur ces résultats , un clic sur --> pour me transmettre toute information concernant les classements


La Bouillonnate 50km - 2021 : classement des 347 finishers
Place Nom Temps Cat. Club Sexe Clt/cat.
Place Nom Temps Cat. Club Sexe Clt/cat.
1 DE COOMAN MICHAEL 04:46:38 SEM BEL M 584
2 HERAULT ERIC 04:59:30 V1M FRA M 450
3 CORDIER BASTIEN 05:02:55 SEM FRA M 35
4 FEIGNe ROBIN 05:02:55 SEM FRA M 588
5 HAMON BENJAMIN 05:12:09 SEM FRA M 633
6 SIMOEN LOUIS 05:16:24 SEM BEL M 416
7 DE BEENHOUWER THOMAS 05:19:40 SEM BEL M 417
8 COPPIN STEVE 05:24:32 SEM BEL M 394
9 HENDERIECKX KRIS 05:30:20 V1M BEL M 78
10 REITSMA JOHAN 05:30:39 V1M NLD M 586
11 BARBIER NICOLAS 05:33:34 V1M BEL M 271
12 LENAERTS JEAN CHRISTOPHE 05:40:01 V1M BEL M 20
13 PERZYNA CHRISTOPHE 05:41:23 SEM BEL M 156
14 VEREECKE VALENTIN 05:43:04 SEM FRA M 7
15 VAN NIEUWENHOVE TANGUY 05:45:01 SEM BEL M 264
16 FROMENT SABINE 05:45:42 V1F BEL F 1ere F 400
17 PODVIN JULIEN 05:48:19 SEM FRA M 52
18 BENGHAFFAR YANN 05:50:26 SEM FRA M 91
19 VANDEWALLE VIRGILE 05:50:37 SEM BEL M 483
20 SIMOEN HENRI 05:51:20 SEM BEL M 418
21 HENRIET NICOLAS 05:52:12 V1M BEL M 303
22 TORINIeRE DIMITRI 05:55:11 SEM FRA M 554
23 MARIAGE JeRoME 05:55:14 SEM BEL M 145
24 DEVOS JIMMY 05:55:14 V1M BEL M 2
25 LETOMBE BENOIT 05:56:19 V1M FRA M 546
26 DERIE RUD 05:57:24 SEM BEL M 403
27 DEGUELDRE STePHANE 06:00:30 V2M FRA M 1 V2M 397
28 COLLIGNON AXEL 06:03:09 SEM BEL M 129
29 MOREAU GREGOIRE 06:03:50 SEM BEL M 491
30 MINART BAPTISTE 06:05:12 SEM FRA M 455
31 GUEDON TIPHANNY 06:06:04 SEF FRA F 2 F 44
32 DEBATY CHRISTOPHE 06:07:11 V1M BEL M 396
33 SEYSSENS LORENZ 06:10:52 SEM BEL M 39
34 LAUNOIS JEROME 06:11:30 SEM BEL M 119
35 PERNET BRIAN 06:11:58 V1M FRA M 410
36 DERMINE MARTIN 06:13:10 SEM BEL M 126
37 VAN HOEF ROY 06:13:14 SEM NLD M 559
38 BRASSEUR BAPTISTE 06:13:33 SEM BEL M 577
39 GOMBAULT MATHIEU 06:14:52 SEM BEL M 497
40 LOISSE QUENTIN 06:15:22 SEM FRA M 132
41 PAROLI CeLINE 06:15:34 V1F FRA F 3 F 96
42 PREVOTEAUX ADRIEN 06:15:37 SEM FRA M 8
43 VIELLE JULIEN 06:17:00 V1M FRA M 173
44 LAGODZINSKI LUDOVIC 06:17:36 V1M FRA M 179
45 GOBERT MARTIN 06:17:39 SEM BEL M 589
46 VANHEE ANTON 06:18:38 SEM BEL M 404
47 DELLOUE HERVe 06:20:41 V1M FRA M 390
48 LAMBERT JORDAN 06:20:57 SEM FRA M 408
49 VAN DEN BRINK JOS 06:21:54 SEM NLD M 454
50 LEBRUN BENOIT 06:22:49 V1M BEL M 262
51 PONTI ANGELO 06:24:12 V1M BEL M 64
52 MYAUX BENOIT 06:24:16 SEM BEL M 120
53 MALHERBE BENOIT 06:26:02 V1M BEL M 76
54 GOUJON VIRGILIO 06:26:03 SEM FRA M 573
55 DERIEZ RONAN 06:26:40 SEM FRA M 407
56 GARILLON YANNICK 06:27:36 V1M FRA M 409
57 LOHEST FRANcOIS 06:28:09 SEM BEL M 493
58 COLLARD JULIEN 06:30:10 SEM BEL M 9
59 GYSSENS DAVID 06:30:38 SEM BEL M 15
60 STAELGRAEVE TOM 06:31:49 SEM BEL M 94
61 LABROCHE CHRISTOPHE 06:32:11 V1M FRA M 553
62 RATINCKX JEAN PHILIPPE 06:32:37 SEM BEL M 473
63 COLLARD FRANcOIS 06:32:38 SEM BEL M 592
64 FORGES CHARLES 06:33:12 SEM BEL M 278
65 PODVIN OLIVIER 06:33:28 V1M FRA M 452
66 POUCET ANTOINE 06:33:37 SEM BEL M 130
67 PICART ALEXANDRE 06:33:57 SEM FRA M 575
68 BELPAIRE ROBIN 06:34:20 SEM BEL M 399
69 MENARD LORIS 06:34:54 V1M FRA M 540
70 JURAS JULIEN 06:36:49 SEM FRA M 539
71 GODET VALENTIN 06:38:11 SEM FRA M 100
72 SCHULLER GReGORY 06:38:24 SEM BEL M 535
73 LUCET GABRIEL 06:40:20 ESM FRA M 1 ESM 137
74 SUEUR STePHANE 06:43:29 V1M FRA M 453
75 DE MOOR MARTIN 06:44:06 SEM BEL M 484
76 PINTE DIDRIK 06:44:10 V1M BEL M 359
77 TIEGHEM QUENTIN 06:44:28 V1M FRA M 138
78 DAME JORDY 06:44:48 ESM BEL M 2 ESM 172
79 LEFER VINCENT 06:45:30 V1M BEL M 596
80 HANSEZ BENOIT 06:47:40 V1M BEL M 492
81 ROMAN DINA 06:48:00 SEF BEL F 2 SEF 176
82 PAREIN ESTELLE 06:48:04 SEF BEL F 3 SEF 143
83 DEWANDELEER BART 06:48:42 SEM BEL M 406
84 BRANCART LAURENT 06:48:47 V1M BEL M 490
85 PETERS NICOLAS 06:49:32 SEM BEL M 536
86 COURET BRICE 06:51:18 V1M FRA M 444
87 MONET DAMIEN 06:53:24 V1M FRA M 386
88 TOPART NICOLAS 06:54:36 SEM BEL M 175
89 CHABOTEAUX JeRoME 06:55:32 SEM BEL M 146
90 DUMORTIER CHRISTOPHE 06:55:37 SEM FRA M 543
91 BINETRUY ARNAUD 06:55:48 V1M FRA M 534
92 DELHAYE BENOiT 06:55:56 SEM BEL M 159
93 REGNAUT SEBASTIEN 06:56:11 SEM FRA M 555
94 JEHIN THOMAS 06:56:57 SEM BEL M 17
95 BRICLET LUDOVIC 06:57:01 V1M FRA M 443
96 VAN DE WYER GAETAN 06:57:57 V1M BEL M 200
97 PHILIPPIN GREGORY 06:58:06 V1M BEL M 441
98 DELFOSSE ALAIN 06:58:08 SEM BEL M 10
99 VERDURE KEVIN 06:58:09 SEM BEL M 465
100 DEKHLI NAOUFEL 06:59:53 V1M FRA M 95
101 DUMOULIN RUDI 07:00:49 V2M BEL M 2 V2M 85
102 CHAUSSIER GReGORY 07:00:53 V1M BEL M 250
103 ALEXIS PONCELET 07:01:58 SEM BEL M 72
104 DIERYCK PASCAL 07:02:00 V2M BEL M 3 V2M 402
105 LHERBIER MATHIAS 07:04:09 SEM FRA M 430
106 DEFOSSE CeDRIC 07:04:17 V1M FRA M 550
107 LOOMANS ITSKE 07:05:04 V1F BEL F 3 V1F 2169
108 BONNIER VINCENT 07:05:41 SEM BEL M 458
109 HULOT LAURENT 07:06:19 V1M FRA M 557
110 VASSET BENOIT 07:06:39 V3M BEL M 1 V3M 86
111 HEROGUEZ DAMIEN 07:07:40 SEM FRA M 393
112 BOOM SANDER 07:08:11 V2M BEL M 568
113 PIETERS JANEZ 07:08:26 SEM BEL M 99
114 CHOIN MATHIEU 07:08:54 SEM FRA M 131
115 NOTERMAN NICOLAS 07:09:19 SEM BEL M 128
116 CRAVATTE MICHEL 07:09:34 V1M BEL M 84
117 DU BOIS PIERRE YVES 07:09:59 SEM BEL M 108
118 DELABASSE BENJAMIN 07:10:04 SEM BEL M 147
119 SOCQUET CLERC JULIEN 07:10:08 V1M FRA M 88
120 WEBER GWENAEL 07:10:21 V1M FRA M 549
121 VERRIEST GAETAN 07:11:02 SEM BEL M 150
122 LELEU ROMAIN 07:11:17 SEM FRA M 23
123 MERNIER JEAN PIERRE 07:11:50 V1M BEL M 79
124 MICHAUX WIVINE 07:12:10 SEF BEL F 7 F 545
125 ANCONA LUCAS 07:13:28 SEM FRA M 385
126 LABROT JORIS 07:13:49 SEM FRA M 574
127 KUDLINSKI ALEXANDRE 07:13:55 V1M FRA M 569
128 DE WALQUE ADRIEN 07:14:29 SEM BEL M 201
129 KRIER BENOIT 07:14:41 V1M BEL M 166
130 THERON MARITZ 07:14:48 SEM ZAF M 18
131 WARRAND FREDERIC 07:14:57 V1M FRA M 556
132 ROSIER BENOIT 07:15:28 V1M BEL M 364
133 GERSDORFF FReDeRIC 07:16:47 V1M BEL M 488
134 DELFOSSE ANTOINE 07:16:52 SEM BEL M 552
135 ROSA HUGUES 07:17:20 V1M BEL M 370
136 ZANIER LAURENT 07:17:22 V1M BEL M 457
137 MEDER DAVID 07:17:37 V1M FRA M 389
138 GHYSELS FReDeRIC 07:18:15 V1M BEL M 56
139 BAQUET MICHAeL 07:19:27 V1M BEL M 579
140 DUBOIS DELPHINE 07:19:28 V1F BEL F 8 F 581
141 ENCKELS SERGE 07:19:38 SEM BEL M 411
142 CIKOWSKI SEVERINE 07:21:20 V1F FRA F 9 F 169
143 RAISON MATHIEU 07:21:21 SEM BEL M 105
144 THIERY JEAN MARC 07:21:40 V2M FRA M 374
145 DESANLIS CYRIL 07:21:43 SEM FRA M 413
146 ROZET ARNAUD 07:22:16 SEM BEL M 82
147 DELLOUP LAURENT 07:22:18 V1M FRA M 161
148 DEVOS FABIEN 07:23:18 SEM FRA M 74
149 POCHET COLIN 07:23:23 SEM BEL M 460
150 CROOS SAM 07:23:54 SEM BEL M 55
151 BOUCETTA WANESSE 07:24:42 SEM FRA M 180
152 GALLET SEBASTIEN 07:24:58 V1M FRA M 449
153 KESTENS LORY 07:24:59 SEM BEL M 48
154 VLASTUIN JOHAN 07:25:09 SEM NLD M 446
155 CHOLET PASCAL 07:25:20 V2M FRA M 398
156 CHILLA CLeMENT 07:25:42 SEM FRA M 42
157 CHILLA JORDAN 07:25:43 SEM FRA M 43
158 ZARULLI CHRIS 07:25:46 SEM BEL M 274
159 DHOLANDER GReGOIRE 07:25:52 SEM BEL M 585
160 DAEMEN CHARLES 07:25:52 SEM BEL M 40
161 PRZYBYLSKI JOHANN 07:25:53 SEM FRA M 38
162 FIQUET PATRICK 07:26:22 SEM FRA M 21
163 DURITA ZOLIKA 07:27:10 V2M BEL M 438
164 BACHELART DAMIEN 07:27:11 SEM BEL M 251
165 DE MEULDER JOOST 07:28:29 SEM BEL M 70
166 KUYSTERMANS TOM 07:28:39 V1M BEL M 542
167 COQUELET JOFFREY 07:29:12 V1M BEL M 412
168 MASSART GReGORY 07:29:16 SEM BEL M 57
169 BODET QUENTIN 07:29:32 SEM BEL M 445
170 SOETHOUDT CHRISTELLE 07:29:34 SEF BEL F 10 F 28
171 VERBRUGGEN PHILIPPE 07:31:36 V1M BEL M 46
172 SCUTENAIRE QUENTIN 07:31:59 SEM BEL M 77
173 MEUDEC KILIAN 07:33:04 SEM FRA M 516
174 DESPLAN MATTHIEU 07:33:23 V1M FRA M 45
175 LUCTKENS JULIAN 07:34:09 SEM BEL M 136
176 BELLEZZA RICHARD 07:34:35 V1M FRA M 12
177 PREVOTEAUX CHRISTOPHE 07:34:48 V2M FRA M 544
178 NICO PEETERS 07:35:04 SEM BEL M 174
179 ROZET DENIS 07:35:14 V2M BEL M 89
180 PETERS MAXIME 07:35:45 SEM BEL M 5
181 BOONE FRANCOIS 07:35:53 V1M BEL M 423
182 CABY BRUNO 07:35:59 SEM BEL M 384
183 MANESSE EMMANUEL 07:36:13 V1M FRA M 572
184 CLINCKSPOOR MAARTEN 07:36:33 SEM BEL M 71
185 VAN HULLE FRANcOIS 07:36:42 SEM BEL M 4
186 DEBARD SAMUEL 07:38:07 V1M FRA M 31
187 GOFFLOT KILLIAN 07:38:13 ESM BEL M 3 ESM 537
188 POELMAN VINCENT 07:38:52 V1M BEL M 121
189 WEBER OLIVIER 07:41:29 V2M FRA M 61
190 MASSIN PIERRE 07:41:43 SEM BEL M 367
191 RYCKEBOER CHARLES 07:42:05 SEM BEL M 22
192 BOCK PHILIPPE 07:42:09 V1M BEL M 87
193 RAMPELBERGS VINCENT 07:43:15 V1M BEL M 292
194 BOUCHEZ RAPHAEL 07:43:28 V1M FRA M 6
195 ALBAUD AUReLIEN 07:43:29 V1M FRA M 160
196 GIOVANNANGELO ALAIN 07:43:46 V3M BEL M 2 V3M 308
197 VANDEVENNE BART 07:44:34 V1M BEL M 151
198 ROLAND ROMAIN 07:45:02 SEM BEL M 512
199 DEXTERS JONATHAN 07:45:03 SEM BEL M 183
200 VAN HALDEREN MAARTEN 07:45:19 SEM NLD M 149
201 COUTURIER ALAIN 07:45:52 V2M FRA M 148
202 BERNIER ANTHONY 07:46:37 SEM FRA M 401
203 SIMON FLORENCE 07:49:25 V1F BEL F 102
204 AMMENDOLA ANTONIO 07:49:44 V1M BEL M 273
205 NEYROUD CHRISTOPHE 07:50:09 V1M FRA M 97
206 SPITAELS JULIEN 07:50:51 SEM BEL M 118
207 PASTUR BENJAMIN 07:51:09 SEM BEL M 111
208 VANDECASTEELE FREDERIK 07:52:06 V1M BEL M 567
209 PETIT JULIEN 07:53:08 SEM FRA M 377
210 HECQ DENIS 07:53:53 V1M BEL M 424
211 RICHALOT NICOLAS 07:54:02 V1M FRA M 547
212 GROOTAERS DIRK 07:54:55 V1M BEL M 461
213 VINCKENBOSCH JEAN SeBASTIEN 07:55:28 SEM BEL M 472
214 PeRIN JULIEN 07:55:39 V1M BEL M 110
215 DELIERE AXEL 07:56:01 SEM BEL M 309
216 DEBUT JULIEN 07:56:25 SEM FRA M 571
217 MODAINE JEROME 07:56:27 V1M FRA M 90
218 SERVAIS XAVIER 07:56:28 SEM BEL M 49
219 MELIN THIBAULT 07:56:31 SEM BEL M 368
220 CARLIER CYRIL 07:57:43 SEM FRA M 25
221 VERPEUT VALENTIN 07:58:03 V1M BEL M 366
222 DAMAS JEAN FRANcOIS 07:58:20 V1M BEL M 16
223 DAMAS MATHIEU 08:00:09 SEM BEL M 480
224 MEES SIMON 08:01:49 V1M BEL M 440
225 KALKMANN FREDERIC 08:03:49 V1M BEL M 106
226 OLIVIER ANTOINE 08:04:33 SEM FRA M 428
227 BECUWE SeBASTIEN 08:04:48 SEM FRA M 26
228 FRETS ERWIN 08:04:52 SEM FRA M 476
229 BAUMAL EDWIN 08:05:56 V1M BEL M 281
230 DENAIS MATTHIEU 08:05:59 SEM FRA M 66
231 DeOME PIERRE 08:06:09 V1M BEL M 478
232 GILLET CYRIL 08:06:20 SEM BEL M 533
233 DUBOIS MAX 08:06:20 SEM BEL M 591
234 DE BACKER SAM 08:06:37 V1M BEL M 11
235 DOCQUIR BENJAMIN 08:06:51 V1M BEL M 477
236 VEKEMANS FREDERIC 08:08:22 V1M BEL M 133
237 MOURY JULIEN 08:08:53 SEM BEL M 375
238 WEYTS ELIO 08:09:58 SEM BEL M 487
239 DE VRIES KOEN 08:10:47 V3M NLD M 3 V3M 29
240 HOOGSTRATE FRANK 08:11:19 V1M NLD M 502
241 FAFCHAMPS CLAUDINE 08:12:24 V2F BEL F 1 V2F 468
242 KEDZIERSKI BENOIT 08:12:25 V1M BEL M 426
243 HANSSEN ROLAND 08:12:25 V2M BEL M 470
244 FOSSIER JEAN LOUIS 08:12:26 V1M FRA M 378
245 DUHAMEL ADRIEN 08:12:27 V1M FRA M 157
246 BEN MADHKOUR RADHWAN 08:13:25 SEM BEL M 346
247 LOUIS CHRISTOPHE 08:13:32 SEM BEL M 538
248 CARRe MATHIEU 08:15:28 V1M FRA M 164
249 RENAHY PIERRE 08:15:31 SEM FRA M 33
250 MERCIER MICHEL 08:17:13 V2M BEL M 127
251 GRASSO ALEXANDRE 08:17:34 V1M FRA M 140
252 MARTINS JOSe 08:17:44 V1M LUX M 496
253 KOURI ALI 08:18:52 M FRA M 1 M 263
254 ROLAND EGLANTINE 08:18:56 V1F BEL F 275
255 MEDUNOVA DAGMAR 08:19:25 V1F CZE F 486
256 DEMORE PHILIPPE 08:19:27 V2M FRA M 208
257 CONDEMINE CYRIL 08:20:27 V1M FRA M 632
258 BROUX TOM 08:20:35 SEM BEL M 391
259 DUFLOT FABIEN 08:20:40 V1M FRA M 152
260 VANDEN BULCKE VICTOR 08:20:48 SEM BEL M 494
261 VAN CAUWENBERGH PHILIPPE 08:21:01 V1M BEL M 279
262 PIETER SOMERS 08:21:03 SEM BEL M 170
263 JASPARD MAXIME 08:21:49 SEM BEL M 372
264 RAOUT YVON 08:22:19 V2M FRA M 578
265 OUTMANNS BERNARD 08:22:22 SEM BEL M 363
266 CUNIN NICOLAS 08:22:45 V1M BEL M 593
267 GEERTS SeBASTIEN 08:23:00 V1M BEL M 139
268 GALERIN MATHIEU 08:23:26 SEM BEL M 587
269 YERNAUX CHRISTOPHE 08:24:02 V1M BEL M 566
270 BONATO BENOIT 08:24:56 V2M BEL M 597
271 BOURGUIGNON BRUNO 08:25:14 V2M BEL M 495
272 LE ROUGE ANTOINE 08:25:39 SEM FRA M 570
273 BARTOSZUK ROMAN 08:25:51 V1M BEL M 361
274 MORDACQ JEAN MICHEL 08:27:04 V1M FRA M 142
275 CUVELIER NICOLAS 08:27:05 SEM FRA M 155
276 VANDEPLANQUE FRANcOIS 08:27:11 V2M FRA M 51
277 NOTHOMB THOMAS 08:27:47 SEM BEL M 541
278 RABIN CHRISTOPHE 08:28:16 V2M FRA M 475
279 MICHAUX CeCILE 08:29:36 V1F FRA F 563
280 PERL FREDERIC 08:29:46 V1M BEL M 81
281 GILLARDIN BRUNO 08:30:19 V1M BEL M 382
282 DENONCIN MAXIME 08:31:05 SEM BEL M 531
283 DE GHEUS DOMINIQUE 08:31:20 V1M BEL M 358
284 VANDENWEGHE JUAN 08:34:24 V1M BEL M 177
285 CORDIER ADRIEN 08:34:35 SEM FRA M 92
286 PLASMAN PIERRE 08:34:43 SEM BEL M 435
287 DEBATTY FLORENT 08:34:59 SEM BEL M 101
288 MASSON MICKAeL 08:35:06 SEM FRA M 421
289 MASSON ALAIN 08:35:08 V2M FRA M 420
290 CHARLIER JeRoME 08:35:21 SEM BEL M 243
291 BERMOND LUCILLE 08:36:02 SEF FRA F 123
292 COEUGNET THOMAS 08:37:54 SEM FRA M 62
293 VAN STEENBERGEN WILLEM 08:38:13 SEM NLD M 68
294 BRAND FABIAN 08:38:13 SEM NLD M 69
295 LEROY ALDO 08:40:57 V2M BEL M 167
296 FLAGEUL STEPHANE 08:41:31 V1M FRA M 65
297 THULIEZ LOIC 08:41:39 SEM FRA M 376
298 STANESCU LUCIAN 08:42:02 V1M ROU M 27
299 MOISE DENIS 08:42:46 SEM BEL M 594
300 VANDIERENDONCK JIMMY 08:43:40 SEM BEL M 381
301 DA COSTA ARLINDO 08:43:45 V1M FRA M 414
302 ORY PATRICK 08:44:15 V1M CHE M 268
303 FREDERIC LAMORT 08:45:20 V1M BEL M 235
304 GILLET PHILIPPE 08:45:55 V1M BEL M 41
305 PALLAGE FRANK 08:46:06 V2M LUX M 162
306 SCHEGERS TOM 08:46:20 V1M BEL M 447
307 DUTRIEUX ALAN 08:47:41 V2M FRA M 582
308 LANNOO MICHAeL 08:48:07 V1M BEL M 47
309 JANSSENS PAUL 08:48:38 V3M BEL M 103
310 VENEMAN MELISSA 08:48:43 SEF NLD F 34
311 MARICHAL DAMIEN 08:51:10 V1M BEL M 425
312 DENIS OLIVIER 08:51:24 SEM BEL M 469
313 MARCHANDISE DAMIEN 08:51:24 SEM BEL M 462
314 CLIQUe MANUEL 08:51:42 V1M FRA M 53
315 HECQ ROMARIC 08:52:12 SEM FRA M 405
316 HUGON VALeRIE 08:52:33 SEF BEL F 107
317 DAISOMONT DIDIER 08:53:45 V2M BEL M 252
318 MILLE CHRISTINE 08:53:46 V1F BEL F 247
319 DISPA JULIEN 08:54:12 V1M BEL M 233
320 DECLERCQ PIETER 08:54:17 SEM BEL M 560
321 QUENON JEOFFREY 08:56:02 SEM BEL M 293
322 GALLET SYLVAIN 08:56:03 SEM FRA M 561
323 PAYET JACQUES 08:56:05 SEM FRA M 564
324 PIERRET JeRoME 08:56:43 V1M BEL M 448
325 HUGON DIDIER 08:58:34 V2M BEL M 104
326 DUCAMP JACQUES 08:58:58 V2M BEL M 60
327 LATOUR ROMAIN 08:59:12 SEM BEL M 134
328 BALAND JOHAN 09:01:28 V1M BEL M 431
329 DESRUELLE REYNALD 09:02:09 V2M FRA M 583
330 HAMELINCK WOUTER 09:02:32 SEM BEL M 489
331 TRAON STEEVE 09:02:53 V1M FRA M 371
332 BIGOT FREDERIC 09:05:29 V1M FRA M 93
333 JORN DE PRIL 09:09:58 SEM BEL M 365
334 MARCHAL KEVIN 09:10:52 V1M BEL M 360
335 DEGOBERT JULIEN 09:14:52 V1M BEL M 54
336 BOUCHEZ HERVE 09:17:38 V1M FRA M 75
337 WILLEMART XAVIER 09:17:45 V2M BEL M 580
338 LIBOTTE VIRGINIE 09:25:34 V1F BEL F 434
339 SACRe BENOIT 09:25:34 V3M BEL M 433
340 FORT JEAN FRANcOIS 09:28:02 V3M FRA M 565
341 DODEMONT VINCENT 09:29:13 V2M BEL M 464
342 POTAR SYLVIA 09:32:01 V2F BEL F 2 V2F 427
343 FOUCARTE MARIE LINE 09:35:30 SEF BEL F 248
344 LALLEMAND LUC 09:41:03 V3M BEL M 548
345 ASSELMAN ERIC 09:45:02 V1M BEL M 362
346 DUCOULOMBIER BENOIT 09:46:03 V1M FRA M 50
347 MELOTTE FRANK 10:00:21 V2M BEL M 158


ReferencementCe site est listé dans la catégorie Sport : Sports extrêmes Dictionnaire
| Accueil | La Réunion  Vue du ciel | Météo | Cyclones | Volcan | Cirques de Mafate , Cilaos , Salazie | Photos Randonnées | Randonnées Réunion: Randos Espiègle , Courses montagne | Diagonale des Fous |  Marathon des Sables | Voyages Les stats du site | Fonds écran | Plan du site | Blog de runraid | Galerie photos Sport Réunion |